This is the latest recevied weather packets stored in our database for station/object IZ1UQG-N2. If no packets are shown the sender has not sent any weather packets the latest 10 day(s).
| Time | Temp. | Humidity | Pressure | Rain* | Wind** | Luminosity | Snow |
|---|---|---|---|---|---|---|---|
| 1777041073 | 23.89° C | 36% | 1012.1 hPa | 0 mm | - | 578 W/m² | - |
| 1777041013 | 23.89° C | 36% | 1012.1 hPa | 0 mm | - | 578 W/m² | - |
| 1777041005 | 23.89° C | 36% | 1012.1 hPa | 0 mm | - | 578 W/m² | - |
| 1777040952 | 24.44° C | 36% | 1012.1 hPa | 0 mm | - | 582 W/m² | - |
| 1777040893 | 24.44° C | 37% | 1012.2 hPa | 0 mm | - | 585 W/m² | - |
| 1777040833 | 23.89° C | 36% | 1012.2 hPa | 0 mm | - | 585 W/m² | - |
| 1777040825 | 23.89° C | 36% | 1012.2 hPa | 0 mm | - | 585 W/m² | - |
| 1777040773 | 24.44° C | 36% | 1012.1 hPa | 0 mm | - | 591 W/m² | - |
| 1777040713 | 23.89° C | 37% | 1012.3 hPa | 0 mm | - | 591 W/m² | - |
| 1777040653 | 23.89° C | 36% | 1012.2 hPa | 0 mm | - | 592 W/m² | - |
| 1777040645 | 23.89° C | 36% | 1012.2 hPa | 0 mm | - | 592 W/m² | - |
| 1777040593 | 23.89° C | 37% | 1012.2 hPa | 0 mm | - | 598 W/m² | - |
| 1777040533 | 23.89° C | 37% | 1012.3 hPa | 0 mm | - | 599 W/m² | - |
| 1777040473 | 23.89° C | 37% | 1012.3 hPa | 0 mm | - | 601 W/m² | - |
| 1777040466 | 23.89° C | 37% | 1012.3 hPa | 0 mm | - | 601 W/m² | - |
| 1777040412 | 23.89° C | 38% | 1012.3 hPa | 0 mm | - | 603 W/m² | - |
| 1777040353 | 23.33° C | 38% | 1012.3 hPa | 0 mm | - | 606 W/m² | - |
| 1777040293 | 23.33° C | 38% | 1012.3 hPa | 0 mm | - | 608 W/m² | - |
| 1777040286 | 23.33° C | 38% | 1012.3 hPa | 0 mm | - | 608 W/m² | - |
| 1777040232 | 23.33° C | 38% | 1012.3 hPa | 0 mm | - | 612 W/m² | - |
| 1777040172 | 23.33° C | 37% | 1012.2 hPa | 0 mm | - | 615 W/m² | - |
| 1777040112 | 23.89° C | 36% | 1012.3 hPa | 0 mm | - | 617 W/m² | - |
| 1777040106 | 23.89° C | 36% | 1012.3 hPa | 0 mm | - | 617 W/m² | - |
| 1777040052 | 23.89° C | 37% | 1012.2 hPa | 0 mm | - | 619 W/m² | - |
| 1777039992 | 23.89° C | 36% | 1012.4 hPa | 0 mm | - | 621 W/m² | - |
* Rain latest hour (hover to see other rain measurements)
** Current wind speed in m/s (hover to see current wind gust speed)